Regional Weather Roundup
Issued by NWS

Home | Current Version | Previous Version | Graphics & Text | Print | Product List | Glossary On
Versions: 1 2 3 4 5 6 7 8 9 10 11 12 13 14 15 16 17 18 19 20 21 22 23 24 25 26 27 28 29 30 31 32 33 34 35 36 37 38 39 40 41 42 43 44 45 46 47 48 49 50
206
ASUS45 KABQ 272210
RWRNM
NEW MEXICO REGIONAL WEATHER ROUNDUP
NATIONAL WEATHER SERVICE ALBUQUERQUE NM
400 PM MDT THU APR 27 2017

NOTE: "FAIR" MEANS FEW OR NO CLOUDS BELOW 12,000 FEET AGL WITH NO
       SIGNIFICANT WEATHER OR OBSTRUCTIONS TO VISION.

      THIS PRODUCT IS RELEASED AS TWO VERSIONS.  ONE VERSION NEAR
      THE TOP OF THE HOUR CONTAINING PRELIMINARY DATA FROM ALBUQUERQUE
      AND OTHER STATIONS.  A FINAL VERSION WITH ADDITIONAL DATA IS
      ISSUED ABOUT 10 MINUTES AFTER THE HOUR.

NMZ501-503-504-510>518-272300-
NORTHWEST PLATEAU/NORTHCENTRAL MOUNTAINS

CITY           SKY/WX    TMP DP  RH WIND       PRES   REMARKS
FARMINGTON     PTSUNNY   56  30  37 W26G36    29.63F
LOS ALAMOS     FAIR      57  27  31 SW20G29   29.67F
SANTA FE       FAIR      65  30  27 W29G39    29.60F
TAOS             N/A     52  27  37 NW36G46   29.65R
ANGEL FIRE     CLOUDY    39  28  65 SW10G24   29.66F WCI  32

$$
NMZ402-403-502-505>509-272300-
WESTCENTRAL MOUNTAINS/SOUTHWEST MOUNTAINS

CITY           SKY/WX    TMP DP  RH WIND       PRES   REMARKS
GALLUP         FAIR      68  22  17 W35G45    29.67F
GRANTS         FAIR      69  20  15 W28G43    29.66F
SILVER CITY    FAIR      76  28  17 W29G41    29.74F

$$
NMZ407-409-411-412-272300-
SOUTHERN DESERTS

CITY           SKY/WX    TMP DP  RH WIND       PRES   REMARKS
DEMING         FAIR      84  28  13 W30G43    29.65F
LAS CRUCES     FAIR      84  27  12 W22G38    29.65F
HOLLOMAN AFB   FAIR      84  29  13 SW18G28   29.60F
ALAMOGORDO     FAIR      84  27  12 SW20G32   29.59F
T OR C         FAIR      85  24  11 W22G30    29.57F

$$
NMZ519>523-272300-
CENTRAL VALLEYS/CENTRAL HIGHLANDS

CITY           SKY/WX    TMP DP  RH WIND       PRES   REMARKS
ALBUQUERQUE    PTSUNNY   74  25  16 W29G43    29.56F
DOUBLE EAGLE   PTSUNNY   63  36  36 NW21G32   29.60F
MORIARTY ARPT  PTSUNNY   69  32  25 NW23G30   29.60F
CLINES CORNERS PTSUNNY   61  30  31 W21G35    29.63F
BELEN          PTSUNNY   75  25  15 W28G41    29.56F
SOCORRO        FAIR      83  25  11 W18G28    29.54F

$$
NMZ524>526-539-540-272300-
SOUTHCENTRAL MOUNTAINS

CITY           SKY/WX    TMP DP  RH WIND       PRES   REMARKS
RUIDOSO        FAIR      68  27  21 SW31G40   29.68F

$$
NMZ527>531-272300-
NORTHEAST HIGHLANDS/NORTHEAST PLAINS

CITY           SKY/WX    TMP DP  RH WIND       PRES   REMARKS
LAS VEGAS      PTSUNNY   56  32  40 NW21G30   29.60F
RATON          FAIR      59  24  26 W29G40    29.50F
CLAYTON        LGT RAIN  64  40  41 N10       29.47F

$$
NMZ532>537-272300-
EASTCENTRAL PLAINS

CITY           SKY/WX    TMP DP  RH WIND       PRES   REMARKS
SANTA ROSA     FAIR      76  30  18 W31G41    29.49F
TUCUMCARI      FAIR      79  33  19 W28G40    29.44F
CANNON AFB     FAIR      81  28  14 W23G41    29.46F
CLOVIS AIRPORT PTSUNNY   79  30  17 W25G35    29.47F

$$
NMZ028-029-538-272300-
SOUTHEAST PLAINS

CITY           SKY/WX    TMP DP  RH WIND       PRES   REMARKS
ROSWELL        FAIR      88  31  13 SW16G31   29.52S
ARTESIA        FAIR      88  32  13 SW31G39   29.49F
CARLSBAD       FAIR      89  28  11 SW22G35   29.51F
HOBBS          SUNNY     84  27  12 SW30G39   29.53F


$$




USA.gov is the U.S. government's official web portal to all federal, state and local government web resources and services.